Theta_e
282 282 282 282 281 281 281 282 282 282 283 283 283 282 281 280 280 280 279 278 278 279
282 282 282 282 281 281 281 283 282 282 282 282 282 282 280 279 279 279 279 279 279 278
282 282 282 281 281 281 281 282 282 282 281 282 281 281 280 279 279 279 279 279 278 278
282 282 282 281 282 282 282 282 282 281 282 282 281 280 279 278 278 277 277 278 277 277
282 282 281 281 282 282 282 282 281 281 281 281 281 280 278 277 277 276 276 277 277 276
281 281 281 281 282 282 281 281 281 281 281 280 280 278 278 277 277 276 276 276 276 276
281 281 281 281 281 281 281 281 281 280 280 279 278 278 278 277 276 276 277 277 277 276
282 281 281 281 281 281 281 281 280 280 278 277 277 278 277 277 277 276 276 277 276 276
281 281 281 281 281 280 280 280 279 278 277 276 277 279 280 279 277 277 276 274 275 275
280 280 280 280 280 279 278 278 277 276 275 274 274 277 278 279 277 276 275 274 274 274
280 279 280 279 279 278 277 274 272 271 271 271 273 277 277 278 276 275 274 274 274 274
279 278 278 275 275 276 274 273 271 272 269 270 271 275 276 276 274 273 273 274 274 274
274 275 273 272 271 272 272 271 271 270 271 270 270 273 275 275 273 271 272 272 273 275
271 270 271 270 270 269 268 268 264 266 267 268 269 270 273 275 274 272 271 271 271 272
Wind_Speed
7 5 5 6 4 4 4 4 4 5 4 3 2 2 3 2 2 4 4 6 5 6
7 7 7 8 6 5 5 5 6 6 5 5 4 3 3 3 4 4 5 6 7 6
7 7 7 6 8 7 7 6 6 6 6 5 5 4 3 3 4 5 5 5 6 8
7 8 6 6 7 7 6 6 6 6 6 6 5 4 3 5 6 6 7 7 8 10
7 7 7 7 8 6 7 5 6 6 6 5 5 5 5 5 6 7 8 9 9 11
8 7 8 8 7 6 6 7 6 6 6 5 5 5 5 6 7 8 8 8 9 11
8 9 8 7 6 6 5 6 6 6 6 5 5 5 6 6 6 8 9 9 10 10
9 7 6 6 6 5 5 6 5 5 5 5 4 5 5 6 7 9 11 10 11 11
6 6 6 6 6 5 6 5 5 5 4 4 4 9 12 12 9 10 11 12 12 11
6 6 6 6 5 6 5 3 5 4 3 4 4 11 13 15 9 10 10 11 12 13
6 6 5 5 6 4 2 3 2 2 2 2 5 12 14 15 10 9 10 11 12 14
5 5 5 3 3 3 3 2 2 2 2 3 5 12 14 13 9 10 12 12 12 13
4 4 3 3 3 2 2 2 1 1 2 5 6 10 13 12 7 10 9 10 12 16
3 4 3 4 2 2 2 2 1 3 4 5 6 7 13 15 9 8 10 10 9 9
Wind_Direction
228 223 229 234 237 244 240 245 254 261 246 271 284 305 314 306 297 293 282 279 269 271
228 226 232 237 235 241 243 245 245 248 248 246 252 253 272 270 282 273 276 273 272 266
225 227 231 231 240 240 247 239 248 249 240 243 243 243 259 277 268 265 278 275 276 280
229 232 229 231 238 234 249 235 240 245 248 241 254 259 271 269 268 269 285 285 280 284
226 229 231 235 243 238 247 248 243 247 244 243 248 267 265 269 280 276 283 284 284 288
230 232 235 239 243 240 238 248 249 231 231 237 244 255 254 250 264 269 271 274 281 288
226 226 231 235 241 243 234 245 243 228 232 234 249 260 263 271 267 268 274 277 277 282
233 229 236 246 251 251 240 240 236 226 226 239 250 263 257 260 271 283 289 289 290 285
224 236 236 245 248 249 250 235 216 222 233 260 273 284 286 290 288 291 292 293 295 295
221 231 233 240 243 251 246 211 219 234 257 267 265 286 289 293 293 293 291 293 297 298
212 230 244 248 253 258 213 191 198 234 249 256 280 293 298 299 292 290 290 293 293 292
192 228 241 235 244 211 175 164 193 226 245 262 272 296 299 300 295 292 289 291 292 290
188 199 200 203 186 145 130 172 149 273 261 265 272 293 298 301 291 288 291 291 289 287
150 168 154 134 120 121 116 82 342 273 269 271 281 292 303 298 290 292 295 294 298 294